Location: George Washington National Forest Helicopter Landing Site
(38.6463°N, 79.0851°W)
Time: 16:25:42
(UTC-04:00)

Tiros 1 despin weight - Pass Details

Date: 21 August 2019
Orbit: 593 x 643 km, 48.2° (Epoch: 19 October)

Event Time Altitude Azimuth Distance (km) Brightness Sun altitude
Rises 02:30:51 0° 267° (W) 2,838 - -36.5°
Reaches altitude 10° 02:33:18 10° 277° (W) 1,943 - -36.3°
Maximum altitude 02:37:21 33° 342° (NNW) 1,021 - -36.0°
Exits shadow 02:40:10 17° 38° (NE) 1,543 ? -35.8°
Drops below altitude 10° 02:41:29 10° 48° (NE) 1,975 ? -35.7°
Sets 02:44:00 0° 58° (ENE) 2,892 ? -35.5°
